Regional Weather Roundup
Issued by NWS

Home | Current Version | Previous Version | Text Only | Print | Product List | Glossary Off
Versions: 1 2 3 4 5 6 7 8 9 10 11 12 13 14 15 16 17 18 19 20 21 22 23 24 25 26 27 28 29 30 31 32 33 34 35 36 37 38 39 40 41 42 43 44 45 46 47 48 49 50

818
ASUS45 KBOU 022007
RWRCO

WEATHER ROUNDUP FOR COLORADO
NATIONAL WEATHER SERVICE DENVER/BOULDER CO
100 PM MST FRI DEC 02 2016

NOTE: "FAIR" INDICATES FEW OR NO CLOUDS BELOW 12000 FEET WITH NO
SIGNIFICANT WEATHER AND/OR OBSTRUCTIONS TO VISIBILITY.

COZ001>005-013-030-031-022100-
...NORTHWEST COLORADO...

CITY           SKY/WX    TMP DP  RH WIND       PRES   REMARKS
CRAIG          CLOUDY    24  16  71 SW7       30.12F WCI  16
HAYDEN         FAIR      21  12  68 W10       30.09S WCI  10
MEEKER         PTSUNNY   25  19  78 SW8       30.09F WCI  16
MOUNT WERNER   NOT AVBL
STEAMBOAT SPGS CLOUDY    23  12  62 CALM      30.07S
WALDEN           N/A     23  12  63 CALM      30.04F
$$

COZ006>008-011-022100-
...WEST CENTRAL VALLEYS...

CITY           SKY/WX    TMP DP  RH WIND       PRES   REMARKS
GRAND JUNCTION CLOUDY    38  22  52 S3        30.07F
MONTROSE       CLOUDY    33  18  53 NW5       30.08F WCI  29
EAGLE          PTSUNNY   34  16  47 CALM      30.06F
RIFLE          CLOUDY    34  20  56 W8        30.07F WCI  27
DELTA          PTSUNNY   36  19  50 CALM      30.08F
NUCLA          CLOUDY    34  18  51 W3        30.06F
$$

COZ017>023-064>068-022100-
...SOUTHWEST COLORADO...

CITY           SKY/WX    TMP DP  RH WIND       PRES   REMARKS
DURANGO        CLOUDY    37  17  44 E5        29.98F
CORTEZ         CLOUDY    39  22  50 SW10      29.97F
PAGOSA SPRINGS CLOUDY    32  21  65 CALM      30.00F
TELLURIDE      CLOUDY    25  17  70 W10       29.97F WCI  15
WOLF CREEK PAS LGT SNOW  14  14 100 S6        30.00F VSB 3/4 WCI   5
$$

COZ009-010-012-014-032>034-037-058>063-022100-
...CENTRAL COLORADO...

CITY           SKY/WX    TMP DP  RH WIND       PRES   REMARKS
ASPEN          CLOUDY    27  16  63 NW3       30.00F
BUENA VISTA    LGT SNOW  22  17  82 E7        30.07F WCI  13
COPPER MTN     PTSUNNY   19   9  63 MISG      29.95R
BERTHOUD PASS  CLOUDY     3  -8  60 SE25G33   29.94S WCI -20
COTTONWOOD PAS LGT SNOW  21  16  79 E5        30.02F WCI  15
GUNNISON       FAIR      25  15  66 CALM      30.01F
KREMMLING      CLOUDY    30  19  64 NW5       30.05F WCI  25
LEADVILLE      CLOUDY    16   9  74 S18       29.96F WCI   0
MONARCH PASS   CLOUDY     9   5  85 E6        30.06F WCI  -1
SALIDA         CLOUDY    22  18  87 CALM      30.17F
SUNLIGHT       LGT SNOW N/A N/A N/A CALM      30.01F
WILKERSON PASS LGT SNOW  14   9  79 S5        30.02F WCI   6
$$

COZ069>075-022100-
...SAN LUIS VALLEY/SANGRE DE CRISTO MOUNTAINS...

CITY           SKY/WX    TMP DP  RH WIND       PRES   REMARKS
ALAMOSA        LGT SNOW  23  19  85 CALM      30.04F FOG
LA VETA PASS   LGT SNOW  18  12  79 S9        30.01F VSB 1   WCI   6
SAGUACHE       LGT SNOW  27  21  80 S5        30.04F WCI  21
$$

COZ035-036-038>040-022100-
...NORTHERN COLORADO FRONT RANGE...

CITY           SKY/WX    TMP DP  RH WIND       PRES   REMARKS
DENVER INTL AP LGT SNOW  30  25  81 E9        30.16F VSB 3/4 WCI  22
DMNS CITY PARK   N/A     33  20  58 E10G17    30.17F WCI  25
AURORA         CLOUDY    30  23  74 E9        30.16F WCI  22
FRONT RANGE AP LGT SNOW  32  25  74 SE5       30.18F WCI  27
ERIE MUNI ARPT CLOUDY    32  22  68 CALM      30.18F
BOULDER MUN AP FLURRIES  32  23  69 SE6       30.17F WCI  26
CENTENNIAL     CLOUDY    29  16  58 S9        30.15F WCI  20
BROOMFIELD     LGT SNOW  30  21  69 E3        30.17F
FORT COLLINS   PTSUNNY   34  19  55 SE6       30.19S WCI  29
LONGMONT       LGT SNOW  34  25  69 SE5       30.20F WCI  30
$$

COZ041-046-047-076>085-087-088-022100-
...PIKES PEAK/PALMER DIVIDE AND SOUTHERN FOOTHILLS...

CITY           SKY/WX    TMP DP  RH WIND       PRES   REMARKS
COLO. SPRINGS  FLURRIES  28  22  78 W5        30.15F WCI  23
A. F. ACADEMY  LGT SNOW  27  21  80 SW5       30.12F WCI  21
SCHRIEVER AFB  NOT AVBL
ELLICOTT       CLOUDY   N/A N/A N/A SE15G21   30.13F
FALCON         LGT SNOW  26  20  76 S10       30.13F WCI  17
FORT CARSON    FLURRIES  29  23  78 NW6       30.13F WCI  23
LIMON          CLOUDY    33  17  51 SE12      30.18F WCI  24
MONUMENT HILL  CLOUDY    27  18  69 SE13      30.13F WCI  16
TRINIDAD       CLOUDY    34  16  47 N6        30.13F WCI  29
$$

COZ042>045-048>051-090-091-022100-
...NORTHEAST COLORADO...

CITY           SKY/WX    TMP DP  RH WIND       PRES   REMARKS
GREELEY ARPT   FAIR      34  18  52 CALM      30.20F
AKRON          CLOUDY    37  17  44 VRB6      30.20S
BURLINGTON     PTSUNNY   40  13  33 SE3       30.22S
WRAY           NOT AVBL
STERLING       PTSUNNY   37  23  56 CALM      30.20F
HOLYOKE        FAIR      43  23  45 N3        30.21F
FORT MORGAN    CLOUDY    37  19  48 E6        30.21S
$$

COZ086-089-092>099-022100-
...SOUTHEAST COLORADO...

CITY           SKY/WX    TMP DP  RH WIND       PRES   REMARKS
PUEBLO         CLOUDY    33  12  41 E5        30.17F WCI  29
LA JUNTA       CLOUDY    35  14  42 CALM      30.19F
LAMAR          CLOUDY    39  15  37 CALM      30.19F
SPRINGFIELD      N/A     42  12  29 E13       30.15F
$$




USA.gov is the U.S. government's official web portal to all federal, state and local government web resources and services.